Location: *
(18.5200°S, 46.4500°E)
Time: 07:24:33
(UTC+00:00)

Cosmos 2322 Rocket - Pass Details

Date: 19 July 2019
Orbit: 833 x 850 km, 71.0° (Epoch: 23 August)

Event Time Altitude Azimuth Distance (km) Brightness Sun altitude
Rises 15:46:50 0° 197° (SSW) 3,411 5.4 -16.9°
Reaches altitude 10° 15:49:17 10° 196° (SSW) 2,474 4.6 -17.5°
Maximum altitude 15:54:59 88° 109° (ESE) 853 2.1 -18.7°
Drops below altitude 10° 16:00:39 10° 17° (NNE) 2,461 4.6 -20.0°
Sets 16:03:05 0° 17° (NNE) 3,392 5.3 -20.6°
